Change the Weather History Date:

Monday, October 24, 2011

  Actual Average Record
Temperature  
Mean Temperature 61 °F 63 °F  
Max Temperature 74 °F 75 °F 91 °F (1921)
Min Temperature 48 °F 50 °F 28 °F (1917)
Degree Days  
Heating Degree Days 4 5  
Month to date heating degree days 77 62  
Since 1 July heating degree days 77 69  
Cooling Degree Days 0 2  
Month to date cooling degree days 53 92  
Year to date cooling degree days 2640 2218  
Growing Degree Days 12 (Base 50)    
Moisture  
Dew Point 52 °F    
Average Humidity 72    
Maximum Humidity 100    
Minimum Humidity 44    
Precipitation  
Precipitation 0.00 in 0.13 in 1.81 in (1918)
Month to date precipitation 0.75 3.02  
Year to date precipitation 39.09 43.33  
Sea Level Pressure  
Sea Level Pressure 30.17 in    
Wind  
Wind Speed 4 mph (North)    
Max Wind Speed 16 mph    
Max Gust Speed -    
Visibility 7 miles    
Events Fog    
T = Trace of Precipitation, MM = Missing Value Source: NWS Daily Summary

Daily Weather History Graph

Daily Weather History Graph

Search for Another Location

Airport or City:

Trip Planner

Search our weather history database for the weather conditions in past years. The results will help you decide how hot, cold, wet, or windy it might be!

Date:

Astronomy

Oct. 24, 2011 Rise Set
Actual Time 7:10 AM CDT 6:17 PM CDT
Civil Twilight 6:45 AM CDT 6:42 PM CDT
Nautical Twilight 6:16 AM CDT 7:11 PM CDT
Astronomical Twilight 5:48 AM CDT 7:40 PM CDT
Moon 4:36 AM CDT (10/24) 4:38 PM CDT (10/24)
Length of Visible Light 11h 57m
Length of Day
11h 07m
Waning Crescent, 7% of the Moon is Illuminated
Oct 24
Waning Crescent
Oct 26
New
Nov 2
First Quarter
Nov 10
Full
Nov 18
Last Quarter

Hourly Weather History & Observations

Time (CDT) Temp. Dew Point Humidity Pressure Visibility Wind Dir Wind Speed Gust Speed Precip Events Conditions
12:54 AM 55.9 °F 55.0 °F 97% 30.10 in 8.0 mi Calm Calm - N/A   Clear
1:54 AM 51.1 °F 50.0 °F 96% 30.10 in 9.0 mi Calm Calm - N/A   Clear
2:01 AM 51.8 °F 51.8 °F 100% 30.11 in 1.2 mi Calm Calm - N/A   Clear
2:20 AM 51.8 °F 51.8 °F 100% 30.11 in 3.0 mi Calm Calm - N/A   Clear
2:46 AM 51.8 °F 50.0 °F 94% 30.11 in 5.0 mi Calm Calm - N/A   Partly Cloudy
2:54 AM 51.1 °F 51.1 °F 100% 30.10 in 5.0 mi Calm Calm - N/A   Partly Cloudy
3:52 AM 50.0 °F 48.2 °F 94% 30.11 in 2.5 mi Calm Calm - N/A   Mostly Cloudy
3:54 AM 50.0 °F 50.0 °F 100% 30.11 in 2.5 mi Calm Calm - N/A   Mostly Cloudy
4:13 AM 53.6 °F 53.6 °F 100% 30.12 in 3.0 mi NW 4.6 mph - N/A   Overcast
4:25 AM 55.4 °F 53.6 °F 94% 30.12 in 2.0 mi North 4.6 mph - N/A   Overcast
4:35 AM 55.4 °F 53.6 °F 94% 30.12 in 0.8 mi North 4.6 mph - N/A   Overcast
4:54 AM 55.0 °F 54.0 °F 96% 30.12 in 0.5 mi Calm Calm - N/A Fog Fog
5:01 AM 55.4 °F 53.6 °F 94% 30.13 in 0.2 mi North 4.6 mph - N/A Fog Fog
5:28 AM 55.4 °F 53.6 °F 94% 30.14 in 1.5 mi NNW 4.6 mph - N/A   Overcast
5:38 AM 55.4 °F 53.6 °F 94% 30.14 in 3.0 mi NNW 5.8 mph - N/A   Overcast
5:54 AM 55.0 °F 54.0 °F 96% 30.14 in 3.0 mi NNW 5.8 mph - N/A   Overcast
6:54 AM 55.0 °F 54.0 °F 96% 30.16 in 6.0 mi North 6.9 mph - N/A   Overcast
7:54 AM 55.0 °F 52.0 °F 89% 30.18 in 5.0 mi NW 5.8 mph - N/A   Overcast
8:25 AM 55.4 °F 51.8 °F 88% 30.19 in 6.0 mi NNW 9.2 mph - N/A   Overcast
8:54 AM 55.0 °F 52.0 °F 89% 30.20 in 10.0 mi NNW 6.9 mph - N/A   Overcast
9:54 AM 57.0 °F 52.0 °F 83% 30.22 in 10.0 mi NNW 8.1 mph - N/A   Overcast
10:54 AM 57.9 °F 51.1 °F 78% 30.24 in 10.0 mi NNE 4.6 mph - N/A   Mostly Cloudy
11:01 AM 59.0 °F 51.8 °F 77% 30.24 in 10.0 mi North 6.9 mph - N/A   Mostly Cloudy
11:36 AM 60.8 °F 51.8 °F 72% 30.24 in 10.0 mi North - - N/A   Scattered Clouds
11:54 AM 63.0 °F 52.0 °F 67% 30.24 in 10.0 mi Variable 4.6 mph - N/A   Partly Cloudy
12:54 PM 66.2 °F 51.8 °F 60% 30.22 in 10.0 mi NNE 4.6 mph - N/A   Clear
1:54 PM 70.0 °F 51.1 °F 51% 30.19 in 10.0 mi North 6.9 mph - N/A   Clear
2:54 PM 73.0 °F 50.0 °F 44% 30.17 in 10.0 mi Variable 5.8 mph - N/A   Clear
3:54 PM 73.0 °F 51.1 °F 46% 30.17 in 10.0 mi NNE 9.2 mph - N/A   Clear
4:54 PM 73.9 °F 52.0 °F 46% 30.17 in 10.0 mi North 5.8 mph - N/A   Clear
5:54 PM 70.0 °F 53.1 °F 55% 30.17 in 10.0 mi NNW 3.5 mph - N/A   Clear
6:54 PM 62.1 °F 54.0 °F 75% 30.19 in 10.0 mi Calm Calm - N/A   Clear
7:54 PM 57.9 °F 53.1 °F 84% 30.20 in 10.0 mi Calm Calm - N/A   Clear
8:54 PM 55.9 °F 53.1 °F 90% 30.21 in 10.0 mi Calm Calm - N/A   Clear
9:54 PM 53.1 °F 51.1 °F 93% 30.22 in 10.0 mi Calm Calm - N/A   Clear
10:54 PM 52.0 °F 50.0 °F 93% 30.23 in 10.0 mi Calm Calm - N/A   Clear
11:54 PM 50.0 °F 48.0 °F 93% 30.22 in 10.0 mi SSE 4.6 mph - N/A   Clear